SHIJIAN-20 (SJ-20) (44910 NORAD) Tracking and Keplerian Element Data

This shows tracking and keplerian element data for the satellite.

Feedback or suggestion? Click here.




ElementValue
Catalog44910
NameSHIJIAN-20 (SJ-20)
Epoch Orbit21
Epoch Day17.71921123
Epoch Year2020
RAAN288.1245
Inclination0.1151
Eccentricity0.0005968
Argument of Perigee88.2167
Mean Anonmoly115.6581
Mean Motion1.0026652
Decay Rate-3.66E-06
L11 44910U 19097A 20017.71921123 -.00000366 00000-0 00000+0 0 9995
L22 44910 0.1151 288.1245 0005968 88.2167 115.6581 1.00266520 210

Live tracking and technical data element details for SHIJIAN-20 (SJ-20) (NORAD 44910). SHIJIAN-20 (SJ-20) can be tracked NOW for your location showing map with azimuth and elevation plus other details from your city location.

Track the satellite on the map from your city or location and see movement details for azimuth, elevation, latitude, longitude, range, height, and movement on the map or in text.







IsCatalogInMostPopularTable: catalog: 44910, numindb: 9
Update: records affected: 1



GetName: 44910 SHIJIAN-20 (SJ-20)

Hit Count: updated at: Mon, 20 Jan 2020 03:41:45 GMT